Tracking 20242 objects as of 24-Jan-2020
HD Live streaming from Space Station
objects crossing your sky now

FENGYUN 1C DEB

Track FENGYUN 1C DEB now!
10-day predictions


NORAD ID: 30528
Int'l Code: 1999-025AJS
Perigee: 759.6 km
Apogee: 976.5 km
Inclination: 98.2 °
Period: 102.2 minutes
Semi major axis: 7239 km
RCS: 0.0209 m2 (small)
Launch date: May 10, 1999
Source: People's Republic of China (PRC)
Launch site: Taiyaun Space Center, China (TSC)

Note: This is SATELLITE DEBRIS
aabbcc
Your satellite tracking list
Your tracking list is empty




NASA's NSSDC Master Catalog

Two Line Element Set (TLE):
1 30528U 99025AJS 20023.48223139 +.00000110 +00000-0 +76993-4 0  9992
2 30528 098.1900 037.8541 0149791 289.2369 241.4725 14.09555747668456
Source of the keplerian elements: AFSPC